SCP
0 0 0 0 0 0 0 0 0 0 0 0 0 0 0 0 0 0 0 0 0 0 0 0 0 0 0 0 0 0 0 0 0 0 0 0 0 0 1 1 0 0 0
0 0 0 0 0 0 0 0 0 0 0 0 0 0 0 0 0 0 0 0 0 0 0 0 0 0 0 0 0 0 0 0 0 0 0 0 0 0 1 1 0 0 1
0 0 0 0 0 0 0 0 0 0 0 0 0 0 0 0 0 0 0 0 0 0 0 0 0 0 0 0 0 0 0 0 0 0 0 0 0 0 1 1 1 1 1
0 0 0 0 0 0 0 0 0 0 0 0 0 0 0 0 0 0 0 0 0 0 0 0 0 0 0 0 0 0 0 0 0 0 0 0 0 0 0 1 1 1 1
0 0 0 0 0 0 0 0 0 0 0 0 0 0 0 0 0 0 0 0 0 0 0 0 0 0 0 0 0 0 0 0 0 0 0 0 0 0 0 0 1 1 1
0 0 0 0 0 0 0 0 0 0 0 0 0 0 0 0 0 0 0 0 0 0 0 0 0 0 0 0 0 0 0 0 0 0 0 0 0 0 0 0 0 1 1
0 0 0 0 0 0 0 0 0 0 0 0 0 0 0 0 0 0 0 0 0 0 0 0 0 0 0 0 0 0 0 0 0 0 0 0 0 0 0 0 0 0 1
0 0 0 0 0 0 0 0 0 0 0 0 0 0 0 0 0 0 0 0 0 0 0 0 0 0 0 0 0 0 0 0 0 0 0 0 0 0 0 0 0 0 0
0 0 0 0 0 0 0 0 0 0 0 0 0 0 0 0 0 0 0 0 0 0 0 0 0 0 0 0 0 0 0 0 0 0 0 0 0 0 0 0 0 0 0
0 0 0 0 0 0 0 0 0 0 0 0 0 0 0 0 0 0 0 0 0 0 0 0 0 0 0 0 0 0 0 0 0 0 0 0 0 0 0 0 0 0 0
0 0 0 0 0 0 0 0 0 0 0 0 0 0 0 0 0 0 0 0 0 0 0 0 0 0 0 0 0 0 0 0 0 0 0 0 0 0 0 0 0 0 0
0 0 0 0 0 0 0 0 0 0 0 0 0 0 0 0 0 0 0 0 0 0 0 0 0 0 0 0 0 0 0 0 -0 -0 0 0 0 0 0 0 0 0 0
0 0 0 0 0 0 0 0 0 0 0 0 0 0 0 0 0 0 0 0 0 0 0 0 0 0 0 0 0 0 0 0 -0 -0 0 0 0 0 0 0 0 0 0
0 0 0 0 0 0 0 0 0 0 0 0 0 0 0 0 0 0 0 0 0 0 0 0 0 0 0 0 0 0 0 0 0 -0 0 0 0 0 0 0 0 0 0
0 0 0 0 0 0 0 0 0 0 0 0 0 0 0 0 0 0 0 0 0 0 0 0 0 0 0 0 0 0 0 0 0 -0 0 0 0 0 0 0 0 0 0
0 0 0 0 0 0 0 0 0 0 0 0 0 0 0 0 0 0 0 0 0 0 0 0 0 0 0 0 0 0 0 0 0 0 0 0 0 0 0 0 0 0 0
0 0 0 0 0 0 0 0 0 0 0 0 0 0 0 0 0 0 0 0 0 0 0 0 0 0 0 0 0 0 0 0 0 0 0 0 0 0 0 0 0 1 1
0 0 0 0 0 0 0 0 0 0 0 0 0 0 0 0 0 0 0 0 0 0 0 0 0 0 0 0 0 0 0 0 0 0 0 0 0 0 0 0 0 1 1
0 0 0 0 0 0 0 0 0 0 0 0 0 0 0 0 0 0 0 0 0 0 0 0 0 0 0 0 0 0 0 0 0 0 0 0 0 0 0 0 0 0 0
0 0 0 0 0 0 0 0 0 0 0 0 0 0 0 0 0 0 0 0 0 0 0 0 0 0 0 0 0 0 0 0 0 0 0 0 0 0 0 0 0 0 0
0 0 0 0 0 0 0 0 0 0 0 0 0 0 0 0 0 0 0 0 0 0 0 0 0 0 0 0 0 0 0 0 0 0 0 0 0 0 0 0 0 0 0
0 0 0 0 0 0 0 0 0 0 0 0 0 0 0 0 0 0 0 0 0 0 0 0 0 0 0 0 0 0 0 0 0 0 0 0 0 0 0 0 0 0 0
0 0 0 0 0 0 0 0 0 0 0 0 0 0 0 0 0 0 0 0 0 0 0 0 0 0 0 0 0 0 0 0 0 0 0 0 0 0 0 0 0 0 0
0 0 0 0 0 0 0 0 0 0 0 0 0 0 0 0 0 0 0 0 0 0 0 0 0 0 0 0 0 0 0 0 0 0 0 0 0 0 0 0 0 0 0
0 0 0 0 0 0 0 0 0 0 0 0 0 0 0 0 0 0 0 0 0 0 0 0 0 0 0 0 0 0 0 0 0 0 0 0 0 0 0 0 0 0 0
0 0 0 0 0 0 0 0 0 0 0 0 0 0 0 0 0 0 0 0 0 0 0 0 0 0 0 0 0 0 0 0 0 0 0 0 0 0 0 0 0 0 0
Wind_Speed
5 8 17 19 20 20 21 21 22 23 23 23 24 24 24 24 25 25 25 25 25 25 25 26 26 26 26 26 26 26 26 26 26 27 27 26 23 22 19 16 14 10 14
6 9 17 18 19 20 20 21 21 22 22 23 23 24 24 24 24 24 24 25 25 25 25 25 26 26 26 26 26 26 26 26 26 27 27 22 21 22 20 19 18 12 16
7 10 13 17 18 19 20 20 21 21 22 22 23 23 23 23 24 24 24 24 24 25 25 25 25 25 26 26 26 26 26 26 26 27 24 13 15 22 22 21 20 19 18
8 9 11 16 17 18 19 20 20 21 21 22 22 23 23 23 23 23 24 24 24 24 24 25 25 25 25 25 25 26 25 26 26 26 15 14 13 20 22 22 22 21 20
8 8 10 16 17 18 19 19 20 20 21 21 22 22 22 22 22 23 23 23 24 24 24 24 24 24 25 25 25 25 25 25 26 20 14 13 11 18 21 22 23 23 22
7 6 8 15 16 17 18 18 19 19 20 20 21 22 22 22 22 22 22 23 23 24 24 24 24 24 24 25 25 25 25 25 21 12 12 12 10 18 21 21 22 23 23
6 5 6 12 14 15 16 17 17 18 19 19 20 21 21 21 21 21 22 23 23 24 24 24 24 24 24 25 24 24 24 25 16 12 11 10 12 21 20 20 22 23 23
6 5 6 11 12 12 13 15 16 17 18 18 19 21 21 21 21 21 22 23 23 23 24 24 24 24 25 24 24 23 23 23 17 14 11 10 17 21 21 21 22 23 23
6 5 5 6 8 12 12 13 14 15 17 18 18 20 21 21 21 21 22 23 23 24 24 24 25 25 25 25 24 23 24 24 14 9 13 10 19 22 22 22 23 23 23
5 5 5 6 5 5 6 11 14 14 16 17 18 20 20 19 19 20 20 22 23 24 24 24 25 26 25 24 24 24 24 19 9 11 8 12 22 23 23 23 23 23 23
6 5 5 5 5 6 6 9 10 12 14 14 13 18 16 8 7 10 17 22 23 24 24 24 25 26 25 22 24 25 20 7 10 8 8 18 24 25 25 24 24 24 24
6 5 5 5 5 5 6 5 4 5 5 6 5 7 5 6 7 11 18 21 23 23 22 24 25 23 17 9 14 19 7 9 8 8 10 24 26 26 26 26 25 25 24
6 4 4 4 4 4 4 4 2 2 3 4 5 6 5 5 5 6 5 9 10 14 9 13 12 9 9 9 8 8 9 8 6 8 11 25 27 27 27 27 26 26 25
5 4 4 4 4 3 3 3 3 2 3 3 4 5 4 4 5 5 5 6 5 5 6 6 6 9 10 10 11 11 10 8 8 7 10 25 27 28 28 28 27 26 25
5 4 3 3 3 3 3 3 4 3 3 4 3 4 5 4 5 5 5 5 6 5 6 7 7 9 9 10 10 13 12 12 11 11 10 23 28 28 28 28 27 26 25
5 4 4 3 3 3 3 3 3 3 3 3 3 4 5 4 5 5 6 6 6 5 6 7 9 9 8 8 10 11 12 12 11 12 11 15 25 28 28 27 27 25 24
5 4 3 1 2 3 3 4 3 3 3 3 3 4 5 5 5 5 5 6 5 6 7 7 8 7 8 10 10 11 11 11 12 13 14 11 12 21 26 26 25 24 23
5 4 3 1 2 3 3 3 3 3 3 3 2 3 4 5 6 5 5 5 6 6 6 6 6 6 7 8 9 9 10 10 13 14 14 13 11 11 15 23 24 24 23
5 4 3 2 1 2 3 3 3 3 3 3 2 2 4 5 5 5 5 5 6 5 6 8 7 7 8 9 9 9 8 10 12 15 15 15 12 11 9 15 21 22 22
6 4 3 2 1 2 2 3 3 3 3 3 2 2 4 4 5 5 5 6 6 5 5 6 8 7 7 8 12 11 9 11 10 10 12 12 12 13 11 10 9 12 20
7 5 3 1 1 1 1 2 3 3 4 3 2 3 4 4 5 5 5 5 5 5 7 8 7 9 8 7 9 10 9 9 10 10 9 11 13 13 11 11 8 7 9
8 6 4 2 1 1 1 2 3 4 4 4 2 3 4 5 5 6 5 5 6 6 7 8 8 7 8 7 8 12 11 10 7 11 10 11 13 11 13 14 12 11 9
8 7 4 3 1 1 0 2 3 3 3 3 3 3 4 5 5 5 5 5 6 6 6 8 8 8 9 9 6 7 10 12 12 7 9 11 11 11 11 11 13 11 12
8 7 5 3 3 2 1 2 3 3 4 4 3 4 5 5 6 6 6 6 6 6 7 8 8 8 10 10 8 6 8 10 12 13 7 7 11 11 11 13 12 12 12
9 7 5 4 4 3 2 2 3 4 3 4 4 5 5 5 6 6 6 5 6 6 7 8 9 9 8 10 10 9 9 9 9 10 13 10 9 8 10 11 11 11 12
9 7 6 5 5 4 3 3 3 4 5 6 6 5 5 4 5 6 6 6 7 7 7 8 9 10 9 11 10 9 9 9 9 8 10 11 11 10 10 10 11 10 9
Wind_Direction
18 29 19 16 18 20 21 22 23 23 23 22 21 21 20 19 17 16 15 13 12 10 8 7 5 3 1 359 357 355 353 352 350 348 342 336 335 336 339 341 340 332 333
31 33 21 19 21 22 22 23 23 23 23 22 21 20 19 18 17 16 14 12 11 9 7 5 3 1 359 357 355 353 351 349 348 345 338 335 339 338 343 345 341 336 333
48 40 22 20 23 24 24 24 24 23 22 21 20 18 16 15 15 14 12 11 9 7 5 4 1 359 357 355 353 350 348 347 346 342 337 337 338 335 341 344 341 338 336
58 49 25 24 26 26 25 25 24 22 21 20 18 16 14 13 12 12 10 8 7 5 3 1 359 356 355 352 350 347 346 345 344 340 338 333 333 329 335 341 341 340 337
67 63 30 28 29 28 26 25 23 21 19 17 16 14 11 10 9 9 7 6 3 1 360 358 355 353 352 349 347 344 343 342 341 339 328 325 324 323 330 337 338 337 335
65 66 41 31 30 29 26 24 22 19 17 15 13 11 8 6 5 5 4 2 360 357 356 354 352 350 348 346 343 341 340 339 339 329 320 316 320 319 324 332 335 334 332
66 59 51 36 30 28 25 22 20 17 14 12 10 8 5 2 1 1 1 359 356 354 353 351 349 348 346 343 341 339 338 337 334 325 315 312 315 316 322 328 331 330 328
70 53 44 33 27 25 24 20 16 14 11 8 7 6 2 359 358 358 358 355 353 351 350 348 346 346 343 341 339 338 337 335 328 318 315 312 315 318 321 325 326 325 324
71 56 46 41 20 12 14 16 11 10 8 5 5 3 360 358 356 354 355 350 349 348 347 345 345 343 341 340 339 338 337 331 330 321 320 320 313 316 318 320 320 320 320
87 65 39 40 26 8 358 6 6 5 5 2 2 0 359 355 352 349 350 345 345 346 344 343 344 342 341 341 339 337 335 334 327 323 315 309 311 314 315 315 315 315 315
87 71 52 36 24 5 353 5 2 360 360 0 359 357 356 344 340 341 342 343 344 344 343 343 343 342 343 340 336 334 336 326 321 313 308 307 311 312 312 311 311 311 310
84 65 58 40 26 10 359 358 347 351 353 351 357 353 344 343 335 347 342 340 343 340 342 340 340 342 339 330 329 331 323 317 315 311 311 312 310 308 307 307 307 306 305
95 72 59 49 38 17 351 345 333 334 349 344 356 348 349 345 335 345 338 335 335 336 339 334 335 330 327 326 321 318 317 319 312 310 309 308 306 305 304 304 303 301 300
107 93 66 48 46 18 353 326 322 343 346 335 348 347 355 341 338 341 333 328 330 328 329 331 327 322 324 322 320 319 320 317 312 308 302 306 306 304 302 300 299 297 296
116 104 82 54 37 9 339 327 345 339 336 328 343 349 355 345 340 337 328 324 324 324 330 329 320 320 321 319 318 321 318 314 310 307 308 307 305 303 300 297 296 294 293
119 105 81 53 20 357 350 344 325 324 322 337 344 346 350 355 342 332 324 321 320 327 328 320 318 318 316 316 317 317 314 311 309 309 305 304 303 301 299 297 295 293 292
122 110 96 71 15 3 353 336 322 311 331 332 340 343 355 359 337 333 320 318 320 324 321 317 313 313 317 319 317 314 311 309 308 306 304 299 296 297 297 296 296 294 293
133 124 105 39 2 3 344 319 308 314 333 329 343 343 0 346 335 330 319 314 317 321 317 313 312 322 317 313 311 309 307 306 306 304 301 296 292 292 295 296 297 297 297
144 136 141 122 342 355 332 320 321 327 333 332 339 343 342 333 332 328 312 308 318 317 311 315 324 315 312 311 307 304 308 307 303 303 301 299 298 297 294 296 298 299 299
146 149 153 142 57 1 349 338 327 331 327 314 319 319 328 325 328 322 305 312 316 311 309 311 308 307 305 305 308 309 302 300 300 306 311 316 311 307 305 306 305 302 298
159 165 159 151 78 29 16 338 323 318 306 299 295 313 325 322 319 310 308 309 310 307 306 304 306 306 304 302 307 307 299 293 300 307 321 319 314 314 315 315 305 299 296
170 165 161 158 124 44 50 300 277 284 285 283 298 329 318 309 304 309 309 306 302 302 302 302 304 300 304 310 308 309 308 304 301 315 310 309 312 318 317 314 308 299 292
170 161 167 163 189 196 329 283 300 301 300 316 331 317 301 299 299 299 298 296 296 298 296 299 297 303 306 302 291 297 302 303 307 294 301 301 304 306 304 303 299 299 298
162 146 158 179 201 204 233 275 299 299 301 303 300 290 297 301 304 301 294 294 295 292 292 296 307 299 299 301 297 282 276 288 299 303 295 293 299 302 305 304 305 302 296
149 149 166 188 207 205 222 259 274 283 287 292 296 297 303 303 299 296 295 298 295 292 290 292 296 293 293 294 295 293 289 284 283 287 298 301 298 294 295 299 296 292 290
147 154 172 195 210 206 219 250 263 279 289 298 302 303 302 296 294 295 301 299 295 292 291 292 291 293 292 294 295 291 290 286 286 284 289 295 296 295 293 292 289 287 284